www.pogodaiklimat.ru

Погода и климат >> Архив погоды >> Россия >> Ямало-Ненецкий АО >> Красноселькупск


ПОГОДА в Красноселькупске

  • Прогноз погоды в Красноселькупске
  • Монитор погоды в Красноселькупске

АРХИВ ПОГОДЫ в Красноселькупске

Время (UTC), дата Ветер
(напр.,м/с)
 
Видим.   Явления Облачность Т
(С)
Тd
(С)
f
(%)
Тe
(С)
Тes
(С)
Комфортность P
(гПа)
Po
(гПа)
Тmin
(С)
Tmax
(С)
R
(мм)
R24
(мм)
S
(см)
12 18.06 З 6-11
{12}
20 км {ливн. осадки} 8/8 300 м
[Sc]
+15.1 +4.2 48 +14 +14 999.8 996.9
15 18.06 ЮЗ 2
{11}
20 км 8/5 330 м
[Sc Ac trans Ci fib]
+13.2 +4.4 55 +13 +13 1001.0 998.1 +15.8 2
18 18.06 ЮВ 3
{11}
20 км 6/0
[Ac trans Ci fib]
+11.5 +4.8 63 +10 +10 1001.3 998.3
21 18.06 ЮВ 1 20 км 9/0
[Ac trans Ci fib]
+10.2 +4.0 65 +10 +10 1000.2 997.2
00 19.06 ЮВ 1 20 км 10/3 600 м
[Sc Ac As]
+11.5 +4.6 63 +12 +12 999.4 996.4
03 19.06 С 1 20 км слаб. ливневой дождь 10/8 600 м
[Cb cap Ac As]
+10.8 +8.0 83 +11 +11 998.0 995.0 +10.1 1
06 19.06 С 3 2000 м слаб. ливневой дождь 10/8 500 м
[Cb cap Ac As]
+10.3 +8.7 90 +8 +9 996.4 993.4
09 19.06 С 4
{10}
2000 м слаб. ливневой дождь 10/10 360 м
[Cb cap]
+10.3 +8.5 89 +8 +8 996.0 993.0
12 19.06 СЗ 5
{12}
2000 м слаб. ливневой дождь 10/8 360 м
[Cb cap Ac As]
+7.1 +4.8 85 +3 +3 998.2 995.2
15 19.06 С 2
{11}
20 км {ливн. осадки} 10/3 300 м
[Sc Ac As]
+8.1 +3.6 73 +6 +6 999.9 996.9 +10.8 8
18 19.06 З 2 10 км слаб. ливневой дождь 8/8 270 м
[Cb cap]
+7.3 +3.9 79 +5 +5 1001.6 998.5
21 19.06 З 4 20 км {ливн. осадки} 5/0
[Ac trans Ci fib]
+5.9 +2.0 76 +2 +2 1005.0 1001.9
00 20.06 З 5 20 км {ливн. осадки} 3/0
[Ci fib]
+6.6 -0.9 59 +3 +4 1008.1 1005.0
03 20.06 З 4 20 км 5/0
[Ac trans Ci fib]
+9.6 -1.8 45 +7 +11 1009.8 1006.8 +5.6 0.0
06 20.06 ЮЗ 4 20 км 9/9 600 м
[Cb cap]
+11.6 +0.8 47 +10 +11 1010.6 1007.6
09 20.06 ЮЗ 3
{10}
20 км 10/10 300 м
[Cb cap]
+13.0 +1.8 46 +12 +12 1010.9 1007.9
12 20.06 Ю 3 20 км 9/9
[Cb cap]
+13.6 +2.1 46 +13 +13 1011.5 1008.5
15 20.06 Ю 4 20 км 9/9
[Sc]
+14.3 +3.3 48 +13 +13 1011.5 1008.5
18 20.06 В 2 20 км 9/9 600 м
[Sc]
+10.0 +4.3 68 +9 +9 1011.2 1008.2
21 20.06 В 2 н/о {ливн. осадки} н/о +9.0 +3.7 69 +7 +7 1010.3 1007.3
00 21.06 ЮВ 3 20 км {ливн. осадки} 10/8 300 м
[Cb cap Ac As]
+11.4 +6.1 70 +10 +10 1009.4 1006.5
03 21.06 Ю 3 20 км 9/3 300 м
[Sc Ac As]
+14.0 +6.5 61 +13 +15 1008.4 1005.5 +8.9 0.3
06 21.06 Ю 4 20 км 5/5 600 м
[Cu med, cong]
+18.3 +5.8 44 +18 +22 1006.5 1003.6
09 21.06 ЮВ 4
{11}
20 км 8/8 600 м
[Cu med, cong]
+19.3 +5.8 41 +20 +21 1004.3 1001.4
12 21.06 Ю 3
{13}
20 км в посл. час ливневой дождь 9/9 300 м
[Cb cap]
+16.0 +10.8 71 +16 +16 1002.8 999.9
15 21.06 ЮВ 3
{12}
20 км в посл. час ливневой дождь 10/4 300 м
[Cb cap Ac As]
+14.7 +11.7 82 +14 +14 1000.5 997.6 +19.7 5
18 21.06 Ю 4 2000 м слаб. ливневой дождь 10/10 330 м
[Cb cap]
+14.5 +12.6 88 +13 +13 998.8 995.9
21 21.06 Ю 5 10 км слаб. ливневой дождь 10/10 400 м
[Cb cap]
+14.7 +11.9 83 +13 +13 998.5 995.6
00 22.06 Ю 6-10
{14}
20 км {ливн. осадки} 10/8
[Cb cap Ac As]
+12.9 +7.7 71 +11 +11 1000.4 997.5
03 22.06 ЮЗ 7-12
{14}
20 км 10/10 360 м
[Cb cap]
+13.4 +6.3 62 +11 +11 1001.7 998.8 +12.9 0.9
06 22.06 Ю 7-12
{14}
20 км 9/9 600 м
[Cb cap]
+12.1 +5.9 66 +9 +10 1003.9 1001.0 +11.8
09 22.06 З 6
{14}
20 км 10/10 570 м
[Cb cap]
+9.8 +4.6 70 +6 +6 1007.1 1004.1
12 22.06 СЗ 5
{14}
20 км 10/10 450 м
[Sc]
+7.7 +3.5 75 +4 +4 1010.8 1007.8
15 22.06 СЗ 3
{11}
20 км 10/10 600 м
[Sc]
+7.9 +3.2 72 +5 +5 1012.4 1009.4 +13.6
18 22.06 В 2 20 км 10/10 870 м
[Sc]
+7.1 +2.0 70 +12.1
21 22.06 СВ 1 20 км 10/10 870 м
[Sc]
+6.0 +1.9 75 +5 +5 1013.1 1010.0
00 23.06 СВ 1 20 км 10/10 600 м
[St Ac trans]
+6.8 +0.8 66 +6 +6 1014.0 1010.9
03 23.06 СВ 2 20 км 8/8 600 м
[Sc]
+8.1 +0.3 58 +7 +8 1013.4 1010.3 +6.0
06 23.06 ЮЗ 2 20 км 4/0
[Ci fib]
+11.8 +2.1 51 +11 +22 опасность
простуды
1012.5 1009.5
09 23.06 ЮЗ 1 20 км 3/0
[Ci fib]
+14.2 +2.2 44 +15 +26 опасность
простуды
1011.4 1008.4
12 23.06 В 1 20 км ясно +16.1 +1.2 36 +17 +21 1010.3 1007.4
15 23.06 СВ 1 20 км 4/0
[Ci fib]
+15.5 +1.5 39 +16 +17 1010.6 1007.7 +16.4
18 23.06 СВ 2 20 км 3/0
[Ac trans]
+10.6 +3.4 61 +10 +10 1010.5 1007.5
21 23.06 В 1 20 км 3/0
[Ac trans]
+8.8 +4.9 76 +8 +8 1009.7 1006.7
00 24.06 ЮВ 2 20 км 1/0
[Ac trans]
+13.6 +6.3 61 +13 +15 1008.9 1006.0
03 24.06 Ю 3 20 км 3/0
[Ac trans]
+18.1 +7.5 50 +18 +24 1007.9 1005.0 +8.6
06 24.06 Ю 5 20 км 3/0
[Ac trans]
+20.9 +6.8 40 +22 +27 комфорт 1006.1 1003.2
09 24.06 Ю 5 20 км 8/5 300 м
[Cu med, cong Ci fib]
+22.8 +8.4 40 +24 +26 комфорт 1004.6 1001.8
12 24.06 ЮЗ 5 20 км 8/5 600 м
[Cu med, cong Ci fib]
+22.5 +8.4 40 +24 +25 комфорт 1004.0 1001.2
15 24.06 Ю 2 20 км 8/0
[Ac trans]
+20.2 +5.4 38 +22 +22 комфорт 1003.9 1001.0 +23.4
18 24.06 ЮЗ 3 20 км 9/0
[Ac trans]
+16.0 +11.1 73 +16 +16 1004.8 1001.9
21 24.06 СЗ 2 10 км слаб. ливневой дождь 10/9 330 м
[Cb cap Ac As]
+14.5 +12.9 90 +14 +14 1004.8 1001.9
00 25.06 СЗ 4 20 км {ливн. осадки} 10/10 210 м
[Sc]
+10.2 +8.7 90 +7 +7 1006.2 1003.2
03 25.06 С 4 20 км 10/10 120 м
[St]
+7.8 +6.4 91 +4 +4 1008.1 1005.1 +7.7

 

Местоположение метеостанции Красноселькупск (Ямало-Ненецкий АО, Россия): широта 65.70 долгота 82.45 высота над уровнем моря 25 м.

В архиве по умолчанию представлена погода в Красноселькупске за последнюю неделю. Архивные данные за месяц целиком и за предыдущие месяцы, начиная с января 2011 года, Вы можете получить, выбрав интересующий диапазон дат из раскрывающегося списка и нажав кнопку "Ввод!".


*Определитесь, кто Вы:
робот инопланетянин человек

Внимание! Время в таблицах - всемирное. Для получения местного времени необходимо прибавить поправку, которая равна 5 ч.

Смотрите также архив погоды в соседних городах и на ближайших метеорологических станциях:

Погода в Советской Речке (Красноярский край, Россия) (138 км)
Погода в Уренгое (Ямало-Ненецкий АО, Россия) (187 км)
Погода в Тольке (Ямало-Ненецкий АО, Россия) (192 км)
Погода в Курейке (Красноярский край, Россия) (231 км)
Погода в Тарко-Сале (Ямало-Ненецкий АО, Россия) (232 км)
Погода в Туруханске (Красноярский край, Россия) (251 км)
Погода в Тазовском (Ямало-Ненецкий АО, Россия) (256 км)
Погода в Новом Уренгое (Ямало-Ненецкий АО, Россия) (261 км)
Погода в Игарке (Красноярский край, Россия) (268 км)
Погода в Верещагино (Красноярский край, Россия) (287 км)

Пояснения к столбцам:

Ветер - указаны скорость ветра в м/с - средняя за 10 мин, порывы в срок и между сроками (в фигурных скобках) и направление, откуда дует ветер: С - северный, СВ - северо-восточный, В - восточный, ЮВ - юго-восточный, Ю - южный, ЮЗ - юго-западный, З - западный, СЗ - северо-западный.
Видимость - горизонтальная дальность видимости в метрах или километрах. При видимости от 1 до 10 км при отсутствии осадков обычно наблюдается дымка, при ухудшении видимости до 1 км и менее - туман. В сухую погоду видимость может ухудшаться дымом, пылью или мглою.
Явления - указаны атмосферные явления, наблюдавшиеся в срок или в последний час перед сроком; фигурными скобками обозначены явления, наблюдавшиеся между сроками (за 1-3 часа до срока); квадратными скобками обозначены град или гололедные отложения с указанием их диаметра в мм.
Облачность - указаны через наклонную черту общая и нижняя облачность в баллах и высота нижней границы облаков в метрах; квадратными скобками обозначены формы облаков: Ci - перистые, Cs - перисто-слоистые, Cc - перисто-кучевые, Ac - высококучевые, As - высокослоистые, Sc - слоисто-кучевые, Ns - слоисто-дождевые, Cu - кучевые, Cb - кучево-дождевые. Подробнее классификацию облаков см. в Атласе облаков (PDF).
T - Температура воздуха - температура, измеренная на высоте 2 м над землей.
Td - Температура точки росы - температура, при понижении до которой содержащийся в воздухе водяной пар достигнет насыщения.
f - Относительная влажность воздуха - влажноcть воздуха, измеренная на высоте 2 м над землей.
Te - Эффективная температура - температура, которую ощущает одетый по сезону человек в тени. Характеристика душности погоды. При расчете учитывается влияние влажности воздуха и скорости ветра на теплоощущения человека.
Tes - Эффективная температура на солнце - температура, которую ощущает человек, с поправкой на солнечный нагрев. Характеристика знойности погоды. Зависит от высоты солнца над горизонтом, облачности и скорости ветра. Ночью, в пасмурную погоду, а также при ветре 12 м/с и более поправка равна нулю.
P - Атмосферное давление - приведенное к уровню моря атмосферное давление.
Po - Атмосферное давление - измеренное на уровне метеостанции атмосферное давление.
Tmin - Минимальная температура - минимум температуры воздуха на высоте 2 м над землей.
Tmax - Максимальная температура - максимум температуры воздуха на высоте 2 м над землей.
R - Количество осадков - Количество выпавших осадков за период времени, мм. При наведении курсора мыши на число - период времени, за который выпало указанное количество осадков.
R24 - Количество осадков - Количество выпавших осадков за 24 часа, мм.
S - Снежный покров - Высота снежного покрова, см. При наведении курсора мыши на число - состояние снежного покрова и степень покрытия местности в баллах.